User: anonymous   Login
Location: Mentone
(34.5413°N, 85.5351°W)
Time: 05:38:52
(UTC-05:00)
Language:

SL-8 R/B - Orbit

View from above orbital plane
View from above orbital plane
View from above satellite
View from above satellite

Ground track
Ground track

The orbit data is extracted from the following two-line orbital elements,

1 33066U 08031G   17087.91827497 -.00000027 +00000-0 +28296-4 0  9991
2 33066 048.4430 125.8488 0007335 141.1381 277.9781 14.69522546470901
Epoch (UTC): 28 March 2017 22:02:18
Eccentricity: 0.0007335
inclination: 48.4430°
perigee height: 657 km
apogee height: 668 km
right ascension of ascending node: 125.8488°
argument of perigee: 141.1381°
revolutions per day: 14.69522546
mean anomaly at epoch: 277.9781°
orbit number at epoch: 47090

The dashed part of the orbit path shows where the satellite is in the earth's shadow,  

DLR